Date String (YYYY-MM-DD hh:mm:ss) UTC,Instrument flags,Ambient pressure (hPa),Sample flow (lpm),Bypass flow (lpm),Sample temperature (°C),Ambient temperature (°C),ASC tube jacket temperature (°C),LED temperature (°C),Box temperature (°C),Sample RH (%),Span deviation,Mass concentration (μg/m³),Mass concentration (μg/m³),Mass concentration (μg/m³)
DateTimeUTC,F1_M11,P_M11,Q1_M11,Q2_M11,T1_M11,T2_M11,T3_M11,T4_M11,T5_M11,U1_M11,ZSPAN_M11,X0_M11,X2_M11,X1_M11
2022-07-01 07:00:00,,0831.7,5.00,0.00,29.6,28.7,00.0,38.4,31.5,26.4,0000.0,0009.64,0002.50,0001.42
2022-07-01 07:01:00,,0831.7,5.01,0.00,29.6,28.7,00.0,38.4,31.5,26.3,0000.0,0009.19,0002.48,0001.43
2022-07-01 07:02:00,,0831.7,5.00,0.00,29.6,28.7,00.0,38.4,31.5,26.4,0000.0,0008.97,0002.49,0001.44
2022-07-01 07:03:00,,0831.8,5.00,0.00,29.6,28.7,00.0,38.4,31.5,26.3,0000.0,0008.87,0002.44,0001.43
2022-07-01 07:04:00,,0831.8,5.01,0.00,29.7,28.8,00.0,38.4,31.6,26.4,0000.0,0008.65,0002.45,0001.44
2022-07-01 07:05:00,,0831.9,4.99,0.00,29.7,28.8,00.0,38.4,31.6,26.4,0000.0,0008.46,0002.44,0001.46
2022-07-01 07:06:00,,0832.0,5.01,0.00,29.7,28.8,00.0,38.4,31.6,26.4,0000.0,0007.88,0002.44,0001.47
2022-07-01 07:07:00,,0832.0,4.99,0.00,29.7,28.8,00.0,38.5,31.6,26.4,0000.0,0007.63,0002.41,0001.47
2022-07-01 07:08:00,,0832.0,5.00,0.00,29.7,28.8,00.0,38.5,31.6,26.4,0000.0,0006.48,0002.43,0001.47
2022-07-01 07:09:00,,0831.9,5.00,0.00,29.7,28.8,00.0,38.5,31.6,26.5,0000.0,0006.82,0002.42,0001.47
2022-07-01 07:10:00,,0831.9,5.00,0.00,29.7,28.8,00.0,38.5,31.6,26.5,0000.0,0007.21,0002.50,0001.46
2022-07-01 07:11:00,,0831.9,5.00,0.00,29.7,28.8,00.0,38.5,31.6,26.6,0000.0,0006.84,0002.52,0001.46
2022-07-01 07:12:00,,0832.0,5.00,0.00,29.7,28.8,00.0,38.5,31.7,26.6,0000.0,0006.48,0002.57,0001.47
2022-07-01 07:13:00,,0831.9,5.02,0.00,29.8,28.8,00.0,38.5,31.7,26.6,0000.0,0007.24,0002.54,0001.47
2022-07-01 07:14:00,,0832.0,5.00,0.00,29.8,28.8,00.0,38.5,31.7,26.7,0000.0,0007.45,0002.54,0001.47
2022-07-01 07:15:00,,0832.0,4.99,0.00,29.8,28.8,00.0,38.5,31.7,26.7,0000.0,0007.47,0002.56,0001.48
2022-07-01 07:16:00,,0832.0,5.00,0.00,29.8,28.8,00.0,38.6,31.7,26.7,0000.0,0007.67,0002.63,0001.49
2022-07-01 07:17:00,,0832.1,5.01,0.00,29.8,28.9,00.0,38.6,31.7,26.6,0000.0,0007.61,0002.61,0001.49
2022-07-01 07:18:00,,0832.1,4.99,0.00,29.8,28.9,00.0,38.6,31.7,26.6,0000.0,0007.78,0002.65,0001.50
2022-07-01 07:19:00,,0832.1,5.01,0.00,29.8,28.9,00.0,38.6,31.7,26.6,0000.0,0007.64,0002.64,0001.52
2022-07-01 07:20:00,,0832.1,5.00,0.00,29.8,28.9,00.0,38.6,31.7,26.6,0000.0,0007.57,0002.73,0001.53
2022-07-01 07:21:00,,0832.1,5.01,0.00,29.8,28.9,00.0,38.6,31.7,26.5,0000.0,0007.61,0002.75,0001.52
2022-07-01 07:22:00,,0832.1,5.00,0.00,29.8,28.9,00.0,38.6,31.8,26.5,0000.0,0007.89,0002.77,0001.53
2022-07-01 07:23:00,,0832.1,4.99,0.00,29.9,28.9,00.0,38.6,31.8,26.5,0000.0,0008.25,0002.81,0001.54
2022-07-01 07:24:00,,0832.1,5.00,0.00,29.9,28.9,00.0,38.6,31.7,26.4,0000.0,0008.04,0002.90,0001.57
2022-07-01 07:25:00,,0832.0,5.00,0.00,29.9,28.9,00.0,38.7,31.8,26.4,0000.0,0008.21,0002.96,0001.59
2022-07-01 07:26:00,,0832.1,5.00,0.00,29.9,28.9,00.0,38.7,31.8,26.4,0000.0,0008.83,0002.98,0001.61
2022-07-01 07:27:00,,0832.1,5.00,0.00,29.9,28.9,00.0,38.7,31.8,26.4,0000.0,0009.01,0002.96,0001.61
2022-07-01 07:28:00,,0832.1,4.99,0.00,29.9,29.0,00.0,38.7,31.8,26.4,0000.0,0009.24,0003.05,0001.62
2022-07-01 07:29:00,,0832.1,4.99,0.00,29.9,29.0,00.0,38.7,31.8,26.5,0000.0,0009.11,0003.02,0001.63
2022-07-01 07:30:00,,0832.1,5.00,0.00,29.9,29.0,00.0,38.7,31.8,26.5,0000.0,0009.08,0003.07,0001.64
2022-07-01 07:31:00,,0832.1,5.01,0.00,29.9,29.0,00.0,38.7,31.9,26.4,0000.0,0009.00,0003.04,0001.66
2022-07-01 07:32:00,,0832.1,5.00,0.00,30.0,29.0,00.0,38.7,31.9,26.5,0000.0,0008.99,0003.08,0001.69
2022-07-01 07:33:00,,0832.1,5.01,0.00,30.0,29.0,00.0,38.7,31.9,26.5,0000.0,0008.86,0003.12,0001.71
2022-07-01 07:34:00,,0832.2,5.00,0.00,30.0,29.0,00.0,38.8,31.9,26.5,0000.0,0008.46,0003.09,0001.71
2022-07-01 07:35:00,,0832.2,4.99,0.00,30.0,29.0,00.0,38.8,31.9,26.4,0000.0,0008.15,0003.04,0001.71
2022-07-01 07:36:00,,0832.2,5.00,0.00,30.0,29.1,00.0,38.8,31.9,26.5,0000.0,0007.79,0003.00,0001.70
2022-07-01 07:37:00,,0832.2,5.01,0.00,30.0,29.1,00.0,38.8,31.9,26.5,0000.0,0006.99,0002.97,0001.73
2022-07-01 07:38:00,,0832.1,5.00,0.00,30.0,29.1,00.0,38.8,31.9,26.5,0000.0,0006.19,0002.94,0001.76
2022-07-01 07:39:00,,0832.2,5.00,0.00,30.0,29.1,00.0,38.8,32.0,26.4,0000.0,0005.84,0002.90,0001.78
2022-07-01 07:40:00,,0832.2,5.01,0.00,30.0,29.1,00.0,38.8,32.0,26.4,0000.0,0005.80,0002.95,0001.82
2022-07-01 07:41:00,,0832.2,4.99,0.00,30.1,29.1,00.0,38.8,32.0,26.4,0000.0,0006.01,0002.96,0001.82
2022-07-01 07:42:00,,0832.2,5.01,0.00,30.1,29.1,00.0,38.8,32.0,26.4,0000.0,0006.13,0002.98,0001.83
2022-07-01 07:43:00,,0832.2,5.00,0.00,30.1,29.1,00.0,38.8,32.0,26.3,0000.0,0006.11,0002.91,0001.84
2022-07-01 07:44:00,,0832.2,5.00,0.00,30.1,29.1,00.0,38.9,32.0,26.3,0000.0,0006.34,0002.84,0001.83
2022-07-01 07:45:00,,0832.2,5.00,0.00,30.1,29.1,00.0,38.9,32.0,26.3,0000.0,0006.29,0002.82,0001.84
2022-07-01 07:46:00,,0832.2,5.01,0.00,30.1,29.1,00.0,38.9,32.0,26.3,0000.0,0006.22,0002.79,0001.85
2022-07-01 07:47:00,,0832.2,4.99,0.00,30.1,29.1,00.0,38.9,32.0,26.2,0000.0,0006.52,0002.81,0001.87
2022-07-01 07:48:00,,0832.3,5.00,0.00,30.1,29.1,00.0,38.9,32.0,26.3,0000.0,0007.61,0002.87,0001.86
2022-07-01 07:49:00,,0832.2,5.02,0.00,30.1,29.1,00.0,38.9,32.0,26.2,0000.0,0008.30,0002.93,0001.86
2022-07-01 07:50:00,,0832.2,5.00,0.00,30.1,29.2,00.0,38.9,32.0,26.2,0000.0,0008.30,0002.92,0001.85
2022-07-01 07:51:00,,0832.2,4.99,0.00,30.1,29.2,00.0,38.9,32.0,26.2,0000.0,0008.21,0002.88,0001.85
2022-07-01 07:52:00,,0832.2,4.99,0.00,30.1,29.2,00.0,38.9,32.0,26.2,0000.0,0008.15,0002.92,0001.86
2022-07-01 07:53:00,,0832.2,5.00,0.00,30.1,29.2,00.0,38.9,32.0,26.2,0000.0,0008.17,0002.94,0001.86
2022-07-01 07:54:00,,0832.3,5.01,0.00,30.1,29.2,00.0,38.9,32.0,26.2,0000.0,0008.00,0002.96,0001.86
2022-07-01 07:55:00,,0832.2,5.00,0.00,30.1,29.2,00.0,38.9,32.0,26.2,0000.0,0007.88,0003.04,0001.88
2022-07-01 07:56:00,,0832.2,5.00,0.00,30.1,29.2,00.0,38.9,32.0,26.2,0000.0,0008.26,0003.11,0001.89
2022-07-01 07:57:00,,0832.2,5.00,0.00,30.1,29.2,00.0,39.0,32.0,26.2,0000.0,0009.02,0003.13,0001.87
2022-07-01 07:58:00,,0832.2,5.00,0.00,30.1,29.2,00.0,39.0,32.0,26.2,0000.0,0009.00,0003.12,0001.86
2022-07-01 07:59:00,,0832.2,5.00,0.00,30.2,29.2,00.0,39.0,32.0,26.2,0000.0,0008.28,0003.10,0001.85
